time_stamp(utc),avg(mph),gust(mph),direction(deg),12m_air_temp(f),sonic_u(cm/s),sonic_v(cm/s),sonic_w(cm/s),pressure,2m_air_temp(f),pyranometer(W/m^2)
"2019-07-15 00:00:00+00",8.5,9.5,,82.8,-300,224,23,1013.85,82.2,0
"2019-07-15 00:05:00+00",9.4,10.4,,82.8,-326,256,23,1013.92,81.7,0
"2019-07-15 00:10:00+00",8.9,9.9,,83.3,-309,244,26,1014.03,81.6,0
"2019-07-15 00:15:00+00",8.6,9.6,,83.4,-326,208,24,1014.07,81.5,0
"2019-07-15 00:20:00+00",7.6,8.6,,83.8,-311,173,22,1014.09,81.3,0
"2019-07-15 00:25:00+00",7.5,7.5,,83.9,-319,175,19,1014.11,80.8,0
"2019-07-15 00:30:00+00",8.0,8.0,,83.6,-308,203,24,1014.1,80.4,0
"2019-07-15 00:35:00+00",8.5,8.5,,83.3,-301,246,24,1014.16,80.3,0
"2019-07-15 00:40:00+00",7.9,8.9,,83.2,-294,222,22,1014.22,80.1,0
"2019-07-15 00:45:00+00",7.8,8.8,,83,-292,214,21,1014.28,80,0
"2019-07-15 00:50:00+00",7.7,7.7,,83.1,-297,186,22,1014.33,79.8,0
"2019-07-15 00:55:00+00",8.8,8.8,,83.1,-339,215,26,1014.33,79.6,0
"2019-07-15 01:00:00+00",9.2,10.2,,83,-345,229,27,1014.3,79.5,0
"2019-07-15 01:05:00+00",9.5,9.5,,82.9,-351,256,28,1014.35,79.4,0
"2019-07-15 01:10:00+00",9.2,10.2,,82.6,-338,245,24,1014.32,79.3,0
"2019-07-15 01:15:00+00",8.3,9.3,,82.7,-300,228,26,1014.44,79.3,0
"2019-07-15 01:20:00+00",8.0,8.0,,82.6,-310,199,25,1014.5,79.1,0
"2019-07-15 01:25:00+00",8.4,8.4,,82.7,-306,233,25,1014.51,79,0
"2019-07-15 01:30:00+00",8.6,8.6,,82.8,-296,249,25,1014.54,78.8,0
"2019-07-15 01:35:00+00",7.6,7.6,,82.3,-269,215,25,1014.52,78.7,0
"2019-07-15 01:40:00+00",7.7,7.7,,81.6,-304,186,24,1014.64,78.5,0
"2019-07-15 01:45:00+00",8.2,9.2,,81.5,-308,213,27,1014.67,78.3,0
"2019-07-15 01:50:00+00",8.7,9.7,,81.5,-304,253,29,1014.73,78.1,0
"2019-07-15 01:55:00+00",7.2,7.2,,80.9,-246,218,20,1014.7,78.1,0
"2019-07-15 02:00:00+00",6.5,7.5,,80,-217,190,16,1014.61,78,0
"2019-07-15 02:05:00+00",5.7,6.7,,79.3,-178,184,15,1014.72,77.9,0
"2019-07-15 02:10:00+00",5.1,6.1,,79.4,-121,192,11,1014.76,77.7,0
"2019-07-15 02:15:00+00",5.9,6.9,,79.5,-134,228,13,1014.75,77.5,0
"2019-07-15 02:20:00+00",5.8,6.8,,79.7,-139,217,18,1014.87,77.4,0
"2019-07-15 02:25:00+00",5.9,5.9,,79.5,-151,214,16,1014.91,77.3,0
"2019-07-15 02:30:00+00",6.6,6.6,,79.6,-174,239,17,1014.96,77.2,0
"2019-07-15 02:35:00+00",5.5,6.5,,79.3,-149,195,18,1014.95,77.1,0
"2019-07-15 02:40:00+00",4.4,4.4,,79.6,-130,150,13,1014.79,76.9,0
"2019-07-15 02:45:00+00",4.2,5.2,,79.3,-166,107,12,1014.86,76.8,0
"2019-07-15 02:50:00+00",6.2,7.2,,79.1,-212,178,18,1015.07,76.7,0
"2019-07-15 02:55:00+00",6.8,6.8,,79.1,-213,217,21,1015.09,76.4,0
"2019-07-15 03:00:00+00",6.2,6.2,,78.9,-209,183,20,1015.06,76.2,0
"2019-07-15 03:05:00+00",6.2,6.2,,78.7,-239,150,21,1015.07,76.1,0
"2019-07-15 03:10:00+00",6.9,7.9,,78.7,-261,153,20,1015.24,75.9,0
"2019-07-15 03:15:00+00",7.0,7.0,,78.5,-275,149,18,1015.22,75.7,0
"2019-07-15 03:20:00+00",8.1,9.1,,78.4,-312,188,21,1015.23,75.5,0
"2019-07-15 03:25:00+00",8.7,9.7,,78.6,-305,243,29,1015.29,75.4,0
"2019-07-15 03:30:00+00",7.7,8.7,,78.6,-253,237,22,1015.25,75.4,0
"2019-07-15 03:35:00+00",7.9,7.9,,78.7,-228,263,25,1015.26,75.5,0
"2019-07-15 03:40:00+00",7.5,7.5,,78.5,-215,252,23,1015.35,75.7,0
"2019-07-15 03:45:00+00",7.9,8.9,,78,-204,276,20,1015.53,75.7,0
"2019-07-15 03:50:00+00",9.8,9.8,,78.3,-221,376,27,1015.48,75.5,0
"2019-07-15 03:55:00+00",7.7,8.7,,77.8,-172,295,17,1015.44,75.4,0
"2019-07-15 04:00:00+00",8.0,8.0,,77.7,-174,308,26,1015.6,75.2,0
"2019-07-15 04:05:00+00",7.8,8.8,,77.4,-110,317,11,1015.51,75,0
"2019-07-15 04:10:00+00",7.4,8.4,,77.1,-101,301,17,1015.54,74.8,0
"2019-07-15 04:15:00+00",7.6,8.6,,77,-116,305,14,1015.61,74.6,0
"2019-07-15 04:20:00+00",8.2,9.2,,76.9,-140,322,16,1015.86,74.4,0
"2019-07-15 04:25:00+00",8.6,9.6,,76.7,-162,339,20,1015.88,74.3,0
"2019-07-15 04:30:00+00",9.4,10.4,,76.5,-180,375,22,1015.99,74.2,0
"2019-07-15 04:35:00+00",8.7,9.7,,76.4,-150,353,18,1016,74,0
"2019-07-15 04:40:00+00",8.1,9.1,,76.2,-142,328,20,1016.13,73.9,0
"2019-07-15 04:45:00+00",8.3,10.3,,76.1,-120,335,18,1016.24,73.7,0
"2019-07-15 04:50:00+00",9.1,10.1,,76,-107,380,11,1016.22,73.6,0
"2019-07-15 04:55:00+00",9.0,10.0,,75.8,-93,389,12,1016.15,73.4,0
"2019-07-15 05:00:00+00",8.1,9.1,,75.6,-90,344,12,1016.2,73.2,0
"2019-07-15 05:05:00+00",7.9,8.9,,75.6,-86,328,8,1016.13,73,0
"2019-07-15 05:10:00+00",8.7,9.7,,75.6,-102,360,12,1016.01,72.9,0
"2019-07-15 05:15:00+00",7.8,8.8,,75.5,-50,336,12,1015.98,72.7,0
"2019-07-15 05:20:00+00",6.1,7.1,,75.2,-10,262,7,1016.02,72.5,0
"2019-07-15 05:25:00+00",6.0,7.0,,75.1,-4,255,3,1016.2,72.3,0
"2019-07-15 05:30:00+00",5.6,6.6,,75,-16,241,6,1016.19,72.1,0
"2019-07-15 05:35:00+00",5.7,6.7,,74.9,-68,234,8,1016.27,72,0
"2019-07-15 05:40:00+00",5.1,6.1,,74.7,-72,214,16,1016.22,71.9,0
"2019-07-15 05:45:00+00",5.0,6.0,,74.5,-41,209,6,1016.26,71.7,0
"2019-07-15 05:50:00+00",5.5,6.5,,74.4,-37,235,10,1016.19,71.4,0
"2019-07-15 05:55:00+00",5.0,6.0,,74.2,-52,211,13,1016.25,71.3,0
"2019-07-15 06:00:00+00",6.2,7.2,,74,-71,261,10,1016.33,71.1,0
"2019-07-15 06:05:00+00",6.4,7.4,,73.9,-65,272,10,1016.25,71,0
"2019-07-15 06:10:00+00",6.8,7.8,,73.8,-142,256,21,1016.29,70.9,0
"2019-07-15 06:15:00+00",6.7,7.7,,73.8,-138,257,17,1016.15,71,0
"2019-07-15 06:20:00+00",6.1,6.1,,73.6,-101,240,16,1016.17,71,0
"2019-07-15 06:25:00+00",6.0,7.0,,73.3,-91,246,11,1016.22,70.9,0
"2019-07-15 06:30:00+00",5.6,6.6,,73,-67,235,4,1016.25,70.7,0
"2019-07-15 06:35:00+00",6.6,7.6,,72.8,-77,276,6,1016.22,70.6,0
"2019-07-15 06:40:00+00",6.4,7.4,,72.7,-62,268,4,1016.2,70.3,0
"2019-07-15 06:45:00+00",4.9,5.9,,72.9,-19,209,6,1016.14,70.2,0
"2019-07-15 06:50:00+00",6.3,7.3,,73,16,266,-1,1016.16,70.1,0
"2019-07-15 06:55:00+00",5.5,6.5,,73,12,232,2,1016.23,70.2,0
"2019-07-15 07:00:00+00",5.9,6.9,,72.9,25,249,2,1016.14,70.1,0
"2019-07-15 07:05:00+00",4.9,5.9,,72.7,52,193,5,1016.18,70.1,0
"2019-07-15 07:10:00+00",4.2,5.2,,72.5,43,161,6,1016.22,70.1,0
"2019-07-15 07:15:00+00",3.2,4.2,,72.2,71,110,2,1016.17,70.2,0
"2019-07-15 07:20:00+00",2.6,3.6,,72.2,44,100,3,1016.19,70.2,0
"2019-07-15 07:25:00+00",0.0,0.0,,72.1,5,52,8,1016.15,70.2,0
"2019-07-15 07:30:00+00",2.2,4.2,,71.9,25,90,8,1016.12,70.1,0
"2019-07-15 07:35:00+00",7.6,8.6,,72.2,24,333,10,1016.23,70,0
"2019-07-15 07:40:00+00",9.1,11.1,,72.4,46,392,6,1016.11,69.9,0
"2019-07-15 07:45:00+00",10.0,12.0,,72.7,37,438,6,1016.09,69.9,0
"2019-07-15 07:50:00+00",10.0,12.0,,72.7,44,437,10,1016.03,69.9,0
"2019-07-15 07:55:00+00",10.9,11.9,,72.6,53,469,5,1016.08,69.9,0
"2019-07-15 08:00:00+00",10.5,12.5,,72.7,72,453,2,1016.14,69.9,0
"2019-07-15 08:05:00+00",12.5,13.5,,72.7,66,539,6,1016.17,69.9,0
"2019-07-15 08:10:00+00",10.9,12.9,,72.9,68,466,3,1016.1,70.1,0
"2019-07-15 08:15:00+00",12.2,14.2,,72.7,65,523,11,1016.21,70.1,0
"2019-07-15 08:20:00+00",12.3,14.3,,72.7,91,524,5,1016.32,70.2,0
"2019-07-15 08:25:00+00",10.9,11.9,,72.8,39,475,9,1016.37,70.3,0
"2019-07-15 08:30:00+00",11.5,12.5,,72.7,53,495,12,1016.45,70.3,0
"2019-07-15 08:35:00+00",11.8,12.8,,72.7,33,514,5,1016.55,70.3,0
"2019-07-15 08:40:00+00",11.3,13.3,,72.5,55,487,0,1016.59,70.3,0
"2019-07-15 08:45:00+00",9.8,10.8,,72.5,73,413,12,1016.58,70.2,0
"2019-07-15 08:50:00+00",10.7,11.7,,72.5,70,451,7,1016.57,70.2,0
"2019-07-15 08:55:00+00",11.1,13.1,,72.4,80,476,5,1016.57,70.1,0
"2019-07-15 09:00:00+00",9.9,10.9,,72.4,57,428,10,1016.55,70,0
"2019-07-15 09:05:00+00",9.8,11.8,,72.4,-9,426,10,1016.63,70,0
"2019-07-15 09:10:00+00",10.0,11.0,,72.2,17,428,8,1016.63,69.8,0
"2019-07-15 09:15:00+00",9.3,10.3,,72.2,-8,407,10,1016.71,69.7,0
"2019-07-15 09:20:00+00",8.3,9.3,,72.4,-20,364,13,1016.75,69.6,0
"2019-07-15 09:25:00+00",7.0,8.0,,72,-90,288,14,1016.79,69.6,0
"2019-07-15 09:30:00+00",6.8,7.8,,71.6,-94,285,15,1016.76,69.5,0
"2019-07-15 09:35:00+00",7.6,7.6,,71.6,-47,328,11,1016.81,69.3,0
"2019-07-15 09:40:00+00",8.0,9.0,,71.5,-15,349,11,1016.89,69,0
"2019-07-15 09:45:00+00",6.7,6.7,,70.6,-57,288,5,1016.99,68.7,0
"2019-07-15 09:50:00+00",6.7,7.7,,69.7,-57,286,10,1016.89,68.4,0
"2019-07-15 09:55:00+00",5.7,6.7,,69.2,-101,225,17,1016.94,68.1,0
"2019-07-15 10:00:00+00",5.9,6.9,,69.1,-110,235,15,1016.97,67.8,0
"2019-07-15 10:05:00+00",6.9,7.9,,69.1,-103,288,15,1017.02,67.7,0
"2019-07-15 10:10:00+00",7.4,8.4,,69.3,-90,314,10,1017.1,67.6,0
"2019-07-15 10:15:00+00",6.7,7.7,,69.4,-39,291,9,1017.13,67.5,0
"2019-07-15 10:20:00+00",8.0,9.0,,70.1,-24,351,14,1017.1,67.6,1.9
"2019-07-15 10:25:00+00",8.0,8.0,,70.5,0,342,8,1017.13,67.9,6
"2019-07-15 10:30:00+00",7.7,9.7,,70.6,-37,335,11,1017.23,68.4,20.6
"2019-07-15 10:35:00+00",8.4,9.4,,70.6,-3,367,13,1017.18,69,5.8
"2019-07-15 10:40:00+00",9.4,11.4,,70.7,35,405,6,1017.26,69.4,28
"2019-07-15 10:45:00+00",10.2,11.2,,71.1,27,439,14,1017.23,70,47
"2019-07-15 10:50:00+00",7.9,8.9,,71.2,-18,345,17,1017.3,70.7,55.5
"2019-07-15 10:55:00+00",8.3,10.3,,71.3,-2,361,15,1017.36,71.4,66.1
"2019-07-15 11:00:00+00",8.9,9.9,,71.3,-3,390,19,1017.45,72,75.3
"2019-07-15 11:05:00+00",10.6,12.6,,71.3,97,436,-18,1017.43,72.4,85.7
"2019-07-15 11:10:00+00",9.2,11.2,,71.1,-32,396,7,1017.47,72.7,93.4
"2019-07-15 11:15:00+00",9.8,10.8,,71.2,17,418,3,1017.51,73.1,91.7
"2019-07-15 11:20:00+00",10.8,11.8,,71.6,45,462,12,1017.54,73.4,112.2
"2019-07-15 11:25:00+00",9.5,10.5,,72,32,412,1,1017.63,73.7,123.8
"2019-07-15 11:30:00+00",11.9,13.9,,72.4,91,490,-8,1017.56,73.9,132.7
"2019-07-15 11:35:00+00",13.1,14.1,,72.4,30,564,3,1017.52,73.9,142.2
"2019-07-15 11:40:00+00",11.1,13.1,,72.6,130,447,-13,1017.64,74.1,152.1
"2019-07-15 11:45:00+00",10.1,12.1,,72.8,78,423,2,1017.68,74.3,159.7
"2019-07-15 11:50:00+00",11.3,13.3,,72.7,118,469,-11,1017.63,74.3,169
"2019-07-15 11:55:00+00",12.0,13.0,,72.7,115,497,-9,1017.65,74.4,176.5
"2019-07-15 12:00:00+00",13.1,14.1,,72.8,95,549,-6,1017.76,74.6,184.5
"2019-07-15 12:05:00+00",9.2,11.2,,73,81,387,1,1017.89,74.9,192.8
"2019-07-15 12:10:00+00",13.1,15.1,,73,79,562,1,1017.9,75.1,201.2
"2019-07-15 12:15:00+00",10.8,12.8,,73.1,90,456,8,1017.93,75.3,209.4
"2019-07-15 12:20:00+00",10.1,12.1,,73.3,167,380,-5,1018.01,75.4,215
"2019-07-15 12:25:00+00",11.0,13.0,,73.5,64,472,2,1018.07,75.7,224.4
"2019-07-15 12:30:00+00",9.2,11.2,,73.5,113,369,6,1018.05,76,226.9
"2019-07-15 12:35:00+00",8.3,10.3,,74,117,320,10,1018.15,76.3,239.7
"2019-07-15 12:40:00+00",7.3,9.3,,74.4,126,281,18,1018.2,76.6,246.2
"2019-07-15 12:45:00+00",8.9,11.9,,74.8,207,303,14,1018.1,77.2,253
"2019-07-15 12:50:00+00",10.3,11.3,,74.8,126,407,-2,1018.14,77.4,249.1
"2019-07-15 12:55:00+00",11.0,13.0,,74.9,221,409,-8,1018.2,77.5,269.1
"2019-07-15 13:00:00+00",9.9,11.9,,75,236,334,0,1018.34,77.7,277.5
"2019-07-15 13:05:00+00",11.4,13.4,,75.1,325,353,20,1018.38,77.8,286
"2019-07-15 13:10:00+00",9.7,12.7,,75.3,239,337,20,1018.41,77.8,294.4
"2019-07-15 13:15:00+00",11.0,14.0,,75.5,278,364,7,1018.42,78.2,306
"2019-07-15 13:20:00+00",9.7,12.7,,75.1,338,248,17,1018.51,78.2,314.2
"2019-07-15 13:25:00+00",8.4,10.4,,75.2,221,274,1,1018.59,78.2,322.7
"2019-07-15 13:30:00+00",9.4,11.4,,75.2,266,281,17,1018.58,78.3,331.8
"2019-07-15 13:35:00+00",11.6,12.6,,75.3,286,396,-6,1018.67,78.4,344.2
"2019-07-15 13:40:00+00",10.6,12.6,,75.6,227,367,6,1018.66,78.8,354.3
"2019-07-15 13:45:00+00",11.0,14.0,,75.6,371,292,40,1018.77,78.9,363.1
"2019-07-15 13:50:00+00",9.2,11.2,,75.7,201,328,13,1018.76,78.9,371.3
"2019-07-15 13:55:00+00",11.1,14.1,,76,366,298,37,1018.77,79.3,382.7
"2019-07-15 14:00:00+00",13.0,15.0,,75.6,419,364,4,1018.71,79.1,391.8
"2019-07-15 14:05:00+00",9.4,11.4,,75.5,297,263,-1,1018.67,78.9,401.8
"2019-07-15 14:10:00+00",11.2,12.2,,75.7,290,365,16,1018.64,79.1,412.2
"2019-07-15 14:15:00+00",12.0,15.0,,75.5,486,224,28,1018.56,79.5,398.5
"2019-07-15 14:20:00+00",10.7,12.7,,75.4,445,187,2,1018.56,79.6,421.4
"2019-07-15 14:25:00+00",9.0,11.0,,75.8,366,127,68,1018.43,79.7,432.2
"2019-07-15 14:30:00+00",11.0,13.0,,75.9,418,238,11,1018.4,79.9,434.6
"2019-07-15 14:35:00+00",11.3,13.3,,75.6,481,147,25,1018.44,79.8,450.3
"2019-07-15 14:40:00+00",10.9,12.9,,75.7,442,202,23,1018.38,79.7,465.6
"2019-07-15 14:45:00+00",9.7,11.7,,75.6,415,128,22,1018.48,79.6,466
"2019-07-15 14:50:00+00",9.7,11.7,,75.7,399,155,3,1018.53,79.6,465.4
"2019-07-15 14:55:00+00",9.0,12.0,,75.8,355,168,37,1018.39,80.3,470.9
"2019-07-15 15:00:00+00",10.0,12.0,,75.8,423,150,16,1018.55,80.3,482.9
"2019-07-15 15:05:00+00",9.8,10.8,,75.9,403,147,14,1018.44,80.6,482.3
"2019-07-15 15:10:00+00",10.4,12.4,,75.8,422,185,5,1018.45,80.4,502.8
"2019-07-15 15:15:00+00",8.9,10.9,,75.8,383,106,48,1018.5,80.7,493.2
"2019-07-15 15:20:00+00",9.8,11.8,,75.8,414,119,34,1018.61,80.7,482.2
"2019-07-15 15:25:00+00",12.6,13.6,,75.6,559,2,7,1018.59,80.6,484.9
"2019-07-15 15:30:00+00",12.2,14.2,,75.3,543,61,37,1018.8,79.9,505
"2019-07-15 15:35:00+00",11.7,12.7,,75.2,526,-1,-3,1018.72,79.7,514.4
"2019-07-15 15:40:00+00",11.6,12.6,,75.3,517,-36,21,1018.78,79.4,525
"2019-07-15 15:45:00+00",11.1,12.1,,75.3,493,-34,22,1018.8,79.1,524.6
"2019-07-15 15:50:00+00",10.0,12.0,,75.2,437,-60,5,1018.75,79.1,499.6
"2019-07-15 15:55:00+00",9.1,10.1,,75.6,401,-62,31,1018.72,79.1,505.9
"2019-07-15 16:00:00+00",8.9,10.9,,75.5,374,-109,7,1018.68,79,522.1
"2019-07-15 16:05:00+00",9.5,11.5,,75.6,382,-157,16,1018.6,79.4,546.2
"2019-07-15 16:10:00+00",10.4,12.4,,75.5,444,-114,15,1018.46,79.1,532.7
"2019-07-15 16:15:00+00",10.1,12.1,,75.5,443,-68,19,1018.34,79,547.1
"2019-07-15 16:20:00+00",10.2,11.2,,75.2,446,-38,9,1018.27,79,550.3
"2019-07-15 16:25:00+00",10.3,11.3,,75.2,446,-74,11,1018.22,79.1,548.8
"2019-07-15 16:30:00+00",10.9,11.9,,74.8,486,-59,-21,1018.26,78.8,554.9
"2019-07-15 16:35:00+00",11.4,12.4,,74.9,505,-61,-12,1018.21,78.8,556.9
"2019-07-15 16:40:00+00",10.1,12.1,,75.1,446,-113,35,1018.32,79,559.1
"2019-07-15 16:45:00+00",11.6,12.6,,75.1,510,32,14,1018.32,79.2,559.5
"2019-07-15 16:50:00+00",11.5,13.5,,74.9,514,65,11,1018.3,79.7,562.6
"2019-07-15 16:55:00+00",11.4,13.4,,75,504,41,20,1018.26,80.1,484
"2019-07-15 17:00:00+00",12.1,13.1,,75.1,533,-109,-9,1018.04,79.7,564.8
"2019-07-15 17:05:00+00",11.9,12.9,,75.3,530,-13,13,1018.15,79.6,539.2
"2019-07-15 17:10:00+00",11.2,13.2,,75.2,487,-109,-7,1018.1,79.7,566.8
"2019-07-15 17:15:00+00",12.5,13.5,,75.3,525,-124,-10,1017.99,79.4,566
"2019-07-15 17:20:00+00",11.3,13.3,,75.4,468,-160,16,1017.86,79,569.2
"2019-07-15 17:25:00+00",11.4,13.4,,75.2,482,-155,-13,1017.85,78.8,572.1
"2019-07-15 17:30:00+00",11.1,12.1,,75.1,494,18,7,1017.85,79.3,572.7
"2019-07-15 17:35:00+00",10.2,11.2,,75.4,428,-84,14,1017.77,79.6,566.4
"2019-07-15 17:40:00+00",10.4,13.4,,75.5,397,-213,3,1017.59,79.5,566.7
"2019-07-15 17:45:00+00",11.0,12.0,,75.6,416,-247,-12,1017.62,79.3,564.8
"2019-07-15 17:50:00+00",10.9,12.9,,75.4,412,-227,-17,1017.5,79,565.6
"2019-07-15 17:55:00+00",11.2,14.2,,75.7,466,-169,-21,1017.52,79.2,533.1
"2019-07-15 18:00:00+00",10.4,13.4,,75.6,317,-313,2,1017.61,79,547.3
"2019-07-15 18:05:00+00",10.7,12.7,,75.4,403,-255,-4,1017.58,78.7,452
"2019-07-15 18:10:00+00",10.6,12.6,,75.6,439,-150,46,1017.6,78.7,558.5
"2019-07-15 18:15:00+00",11.2,12.2,,75.9,344,-345,12,1017.54,79.3,557.4
"2019-07-15 18:20:00+00",11.3,13.3,,75.6,431,-242,-17,1017.49,79.2,532.1
"2019-07-15 18:25:00+00",11.4,12.4,,75.6,380,-333,-9,1017.39,79,535
"2019-07-15 18:30:00+00",10.9,13.9,,76,415,-231,23,1017.42,79.3,516.5
"2019-07-15 18:35:00+00",11.0,14.0,,75.9,349,-324,-2,1017.35,79.2,517.2
"2019-07-15 18:40:00+00",11.8,13.8,,75.9,394,-325,-16,1017.43,79.3,477.2
"2019-07-15 18:45:00+00",11.3,12.3,,75.8,387,-298,1,1017.32,79.1,469.7
"2019-07-15 18:50:00+00",10.8,13.8,,75.8,410,-238,20,1017.28,79,475.4
"2019-07-15 18:55:00+00",10.7,11.7,,75.7,412,-231,4,1017.26,78.9,466.2
"2019-07-15 19:00:00+00",10.9,12.9,,75.7,384,-278,-26,1017.26,78.9,460.1
"2019-07-15 19:05:00+00",11.8,13.8,,76,426,-287,-14,1017.22,79.1,455.3
"2019-07-15 19:10:00+00",10.9,12.9,,76.1,291,-380,-4,1017.22,78.9,466.9
"2019-07-15 19:15:00+00",10.4,12.4,,75.8,332,-309,-25,1017.16,78.7,484.3
"2019-07-15 19:20:00+00",10.6,12.6,,76.1,248,-378,-2,1017.15,78.8,474.3
"2019-07-15 19:25:00+00",10.5,12.5,,76.3,278,-355,25,1017.11,78.9,454.5
"2019-07-15 19:30:00+00",10.4,12.4,,76.1,277,-353,2,1017.21,78.7,445.8
"2019-07-15 19:35:00+00",11.3,14.3,,76.3,361,-335,-11,1017.17,79.2,438.5
"2019-07-15 19:40:00+00",11.1,13.1,,76.1,332,-340,-4,1017.1,78.8,433.2
"2019-07-15 19:45:00+00",11.2,12.2,,76,246,-424,0,1017.14,78.5,423.2
"2019-07-15 19:50:00+00",10.1,13.1,,76.1,241,-348,-9,1017.09,78.6,415.9
"2019-07-15 19:55:00+00",10.0,13.0,,76.3,244,-362,-26,1017.12,78.7,404.4
"2019-07-15 20:00:00+00",11.2,13.2,,76.3,213,-434,-28,1017.14,78.6,396
"2019-07-15 20:05:00+00",11.2,12.2,,76.4,300,-369,13,1017.21,78.9,385.4
"2019-07-15 20:10:00+00",11.2,12.2,,76.2,310,-380,-12,1017.14,78.8,377.8
"2019-07-15 20:15:00+00",11.7,13.7,,76.1,333,-382,-7,1017.13,78.5,368
"2019-07-15 20:20:00+00",10.5,12.5,,76.2,239,-376,-16,1017.08,78.6,356.3
"2019-07-15 20:25:00+00",9.5,11.5,,76.5,83,-396,-17,1017.08,78.7,347.7
"2019-07-15 20:30:00+00",11.0,13.0,,76.5,210,-419,-1,1017.03,78.6,335.8
"2019-07-15 20:35:00+00",11.5,13.5,,76.5,174,-465,-25,1017,78.6,319.2
"2019-07-15 20:40:00+00",9.9,13.9,,76.5,162,-397,-14,1017.03,78.5,317.7
"2019-07-15 20:45:00+00",10.4,11.4,,76.5,161,-422,-5,1017.02,78.5,116.6
"2019-07-15 20:50:00+00",10.4,12.4,,76.6,121,-427,12,1016.98,78.7,15.2
"2019-07-15 20:55:00+00",9.1,11.1,,76.8,100,-366,15,1016.78,78.7,14.2
"2019-07-15 21:00:00+00",10.8,12.8,,76.6,114,-444,-28,1016.76,78.6,13.4
"2019-07-15 21:05:00+00",10.8,12.8,,76.5,156,-443,-12,1016.81,78.2,194.3
"2019-07-15 21:10:00+00",10.1,12.1,,76.7,56,-423,4,1016.75,78.4,247.7
"2019-07-15 21:15:00+00",9.3,11.3,,76.8,30,-387,-10,1016.72,78.3,244.2
"2019-07-15 21:20:00+00",9.3,12.3,,77,34,-380,-6,1016.83,78.3,157.8
"2019-07-15 21:25:00+00",9.5,12.5,,77,13,-400,5,1016.86,78.1,220.4
"2019-07-15 21:30:00+00",10.4,12.4,,76.9,140,-419,1,1016.78,78.2,221.2
"2019-07-15 21:35:00+00",9.1,12.1,,77.1,91,-374,-3,1016.72,78.3,210.7
"2019-07-15 21:40:00+00",11.4,13.4,,77,53,-483,-29,1016.73,78.2,201.6
"2019-07-15 21:45:00+00",10.2,12.2,,77.2,63,-434,-17,1016.65,78.4,195.5
"2019-07-15 21:50:00+00",10.4,11.4,,77,118,-421,-23,1016.58,78.1,191.9
"2019-07-15 21:55:00+00",10.4,12.4,,76.9,92,-438,-9,1016.58,78.1,185
"2019-07-15 22:00:00+00",10.3,11.3,,76.7,151,-415,-7,1016.52,78,172.6
"2019-07-15 22:05:00+00",10.9,12.9,,76.6,110,-456,-49,1016.46,77.8,166
"2019-07-15 22:10:00+00",8.6,12.6,,76.8,34,-358,8,1016.46,77.9,159.5
"2019-07-15 22:15:00+00",7.7,9.7,,77.2,66,-312,11,1016.46,78.1,149.7
"2019-07-15 22:20:00+00",12.1,13.1,,77.3,34,-498,-34,1016.38,78.1,148.6
"2019-07-15 22:25:00+00",10.4,13.4,,77.2,6,-442,-33,1016.43,77.9,141.7
"2019-07-15 22:30:00+00",10.1,12.1,,77.3,59,-415,6,1016.44,78,110.1
"2019-07-15 22:35:00+00",9.9,12.9,,77.4,67,-420,-11,1016.49,78.1,124.6
"2019-07-15 22:40:00+00",8.5,11.5,,77.5,66,-335,17,1016.5,78.2,113
"2019-07-15 22:45:00+00",10.1,12.1,,77.4,105,-421,-17,1016.48,78.2,103.7
"2019-07-15 22:50:00+00",9.9,11.9,,77.2,79,-418,-16,1016.57,78,91.8
"2019-07-15 22:55:00+00",8.3,10.3,,77.2,31,-349,-8,1016.58,77.7,78.4
"2019-07-15 23:00:00+00",7.1,9.1,,77.1,40,-302,-2,1016.57,77.6,69.2
"2019-07-15 23:05:00+00",8.1,10.1,,77.2,11,-331,-29,1016.54,77.5,65
"2019-07-15 23:10:00+00",8.0,9.0,,77.2,27,-336,-22,1016.7,77.4,54.5
"2019-07-15 23:15:00+00",6.5,7.5,,77.2,55,-267,2,1016.69,77.5,46.2
"2019-07-15 23:20:00+00",5.7,6.7,,77.1,37,-219,21,1016.67,77.4,36.2
"2019-07-15 23:25:00+00",6.9,8.9,,77,40,-293,-8,1016.68,77.3,27.3
"2019-07-15 23:30:00+00",7.4,9.4,,76.9,37,-317,-14,1016.61,77.2,21.4
"2019-07-15 23:35:00+00",6.9,8.9,,76.8,50,-291,-3,1016.6,77,10.4
"2019-07-15 23:40:00+00",7.5,8.5,,76.7,30,-316,-12,1016.67,76.7,3
"2019-07-15 23:45:00+00",8.0,11.0,,76.5,-2,-319,-13,1016.72,76.5,0
"2019-07-15 23:50:00+00",7.7,9.7,,76.4,-25,-326,-23,1016.71,76.4,0
"2019-07-15 23:55:00+00",7.1,10.1,,76.3,-17,-291,-6,1016.76,76.3,0
